TimeCDT,TemperatureF,Dew PointF,Humidity,Sea Level PressureIn,VisibilityMPH,Wind Direction,Wind SpeedMPH,Gust SpeedMPH,PrecipitationIn,Events,Conditions,WindDirDegrees,DateUTC
12:14 AM,32.0,32.0,100,29.99,5.0,Calm,Calm,-,N/A,,Clear,0,2014-04-20 05:14:00
12:34 AM,32.0,30.2,93,29.99,2.5,Calm,Calm,-,N/A,,Clear,0,2014-04-20 05:34:00
12:53 AM,30.2,30.2,100,29.99,4.0,Calm,Calm,-,N/A,,Clear,0,2014-04-20 05:53:00
1:14 AM,30.2,30.2,100,29.99,4.0,Calm,Calm,-,N/A,,Clear,0,2014-04-20 06:14:00
1:34 AM,30.2,30.2,100,30.00,4.0,WNW,4.6,-,N/A,,Clear,300,2014-04-20 06:34:00
1:53 AM,32.0,32.0,100,30.00,7.0,Calm,Calm,-,N/A,,Clear,0,2014-04-20 06:53:00
2:14 AM,30.2,30.2,100,30.00,5.0,Calm,Calm,-,N/A,,Clear,0,2014-04-20 07:14:00
2:34 AM,30.2,30.2,100,30.00,5.0,Calm,Calm,-,N/A,,Clear,0,2014-04-20 07:34:00
2:53 AM,30.2,30.2,100,30.01,4.0,Calm,Calm,-,N/A,,Clear,0,2014-04-20 07:53:00
3:14 AM,30.2,28.4,93,30.01,7.0,Calm,Calm,-,N/A,,Clear,0,2014-04-20 08:14:00
3:34 AM,28.4,26.6,93,30.02,5.0,Calm,Calm,-,N/A,,Clear,0,2014-04-20 08:34:00
3:53 AM,28.4,28.4,100,30.02,4.0,Calm,Calm,-,N/A,,Clear,0,2014-04-20 08:53:00
4:14 AM,28.4,26.6,93,30.03,7.0,Calm,Calm,-,N/A,,Clear,0,2014-04-20 09:14:00
4:34 AM,28.4,26.6,93,30.03,7.0,Calm,Calm,-,N/A,,Clear,0,2014-04-20 09:34:00
4:53 AM,28.4,26.6,93,30.03,7.0,Calm,Calm,-,N/A,,Clear,0,2014-04-20 09:53:00
5:14 AM,26.6,26.6,100,30.04,5.0,Calm,Calm,-,N/A,,Clear,0,2014-04-20 10:14:00
5:34 AM,26.6,24.8,93,30.04,7.0,Calm,Calm,-,N/A,,Clear,0,2014-04-20 10:34:00
5:54 AM,28.4,28.4,100,30.04,7.0,Calm,Calm,-,N/A,,Clear,0,2014-04-20 10:54:00
6:14 AM,26.6,24.8,93,30.04,7.0,Calm,Calm,-,N/A,,Clear,0,2014-04-20 11:14:00
6:33 AM,26.6,24.8,93,30.05,7.0,Calm,Calm,-,N/A,,Clear,0,2014-04-20 11:33:00
7:14 AM,28.4,26.6,93,30.05,7.0,Calm,Calm,-,N/A,,Clear,0,2014-04-20 12:14:00
7:33 AM,30.2,30.2,100,30.05,7.0,Calm,Calm,-,N/A,,Clear,0,2014-04-20 12:33:00
7:54 AM,32.0,32.0,100,30.06,7.0,Calm,Calm,-,N/A,,Clear,0,2014-04-20 12:54:00
8:14 AM,35.6,35.6,100,30.05,7.0,Calm,Calm,-,N/A,,Clear,0,2014-04-20 13:14:00
8:33 AM,39.2,37.4,93,30.05,10.0,Calm,Calm,-,N/A,,Clear,0,2014-04-20 13:33:00
8:54 AM,42.8,35.6,76,30.05,10.0,Calm,Calm,-,N/A,,Clear,0,2014-04-20 13:54:00
9:14 AM,44.6,35.6,71,30.05,10.0,Calm,Calm,-,N/A,,Clear,0,2014-04-20 14:14:00
9:33 AM,44.6,33.8,66,30.04,10.0,Calm,Calm,-,N/A,,Clear,0,2014-04-20 14:33:00
9:54 AM,46.4,33.8,62,30.04,10.0,Calm,Calm,-,N/A,,Clear,0,2014-04-20 14:54:00
10:13 AM,50.0,35.6,58,30.04,10.0,Calm,Calm,-,N/A,,Clear,0,2014-04-20 15:13:00
10:34 AM,51.8,35.6,54,30.04,10.0,Calm,Calm,-,N/A,,Clear,0,2014-04-20 15:34:00
10:54 AM,51.8,33.8,50,30.05,10.0,NW,5.8,-,N/A,,Clear,310,2014-04-20 15:54:00
11:13 AM,53.6,33.8,47,30.04,10.0,WNW,3.5,-,N/A,,Clear,300,2014-04-20 16:13:00
11:34 AM,53.6,32.0,44,30.05,10.0,Calm,Calm,-,N/A,,Clear,0,2014-04-20 16:34:00
11:54 AM,55.4,32.0,41,30.04,10.0,Calm,Calm,-,N/A,,Clear,0,2014-04-20 16:54:00
12:13 PM,57.2,32.0,38,30.04,10.0,Calm,Calm,-,N/A,,Clear,0,2014-04-20 17:13:00
12:34 PM,57.2,32.0,38,30.04,10.0,NW,3.5,-,N/A,,Clear,310,2014-04-20 17:34:00
12:54 PM,57.2,32.0,38,30.03,10.0,NNW,5.8,-,N/A,,Clear,340,2014-04-20 17:54:00
1:13 PM,59.0,32.0,36,30.03,10.0,NW,5.8,-,N/A,,Clear,310,2014-04-20 18:13:00
1:34 PM,59.0,30.2,34,30.03,10.0,West,3.5,-,N/A,,Clear,270,2014-04-20 18:34:00
1:54 PM,60.8,32.0,34,30.03,10.0,Calm,Calm,-,N/A,,Clear,0,2014-04-20 18:54:00
2:13 PM,62.6,32.0,32,30.03,10.0,West,4.6,-,N/A,,Clear,280,2014-04-20 19:13:00
2:34 PM,62.6,30.2,30,30.02,10.0,WSW,5.8,-,N/A,,Clear,240,2014-04-20 19:34:00
2:54 PM,62.6,30.2,30,30.02,10.0,WSW,6.9,-,N/A,,Clear,250,2014-04-20 19:54:00
3:13 PM,62.6,30.2,30,30.02,10.0,WSW,6.9,-,N/A,,Clear,250,2014-04-20 20:13:00
3:34 PM,62.6,30.2,30,30.01,10.0,West,3.5,-,N/A,,Clear,270,2014-04-20 20:34:00
3:53 PM,62.6,30.2,30,30.01,10.0,NW,5.8,-,N/A,,Clear,310,2014-04-20 20:53:00
4:14 PM,62.6,28.4,27,30.00,10.0,WNW,4.6,-,N/A,,Clear,290,2014-04-20 21:14:00
4:33 PM,62.6,30.2,30,30.00,10.0,NW,6.9,-,N/A,,Clear,310,2014-04-20 21:33:00
4:54 PM,62.6,28.4,27,30.00,10.0,NW,5.8,-,N/A,,Clear,310,2014-04-20 21:54:00
5:14 PM,62.6,28.4,27,30.00,10.0,WNW,5.8,-,N/A,,Clear,300,2014-04-20 22:14:00
5:33 PM,62.6,28.4,27,30.00,10.0,Calm,Calm,-,N/A,,Clear,0,2014-04-20 22:33:00
5:54 PM,62.6,28.4,27,30.00,10.0,Calm,Calm,-,N/A,,Clear,0,2014-04-20 22:54:00
6:14 PM,62.6,28.4,27,30.00,10.0,West,3.5,-,N/A,,Clear,270,2014-04-20 23:14:00
6:33 PM,62.6,28.4,27,30.00,10.0,West,5.8,-,N/A,,Clear,280,2014-04-20 23:33:00
6:54 PM,62.6,28.4,27,29.99,10.0,West,3.5,-,N/A,,Clear,260,2014-04-20 23:54:00
7:14 PM,62.6,28.4,27,29.98,10.0,Calm,Calm,-,N/A,,Clear,0,2014-04-21 00:14:00
7:33 PM,57.2,30.2,36,29.98,10.0,Calm,Calm,-,N/A,,Clear,0,2014-04-21 00:33:00
7:54 PM,51.8,32.0,47,29.98,10.0,Calm,Calm,-,N/A,,Clear,0,2014-04-21 00:54:00
8:14 PM,48.2,30.2,50,29.98,10.0,Calm,Calm,-,N/A,,Clear,0,2014-04-21 01:14:00
8:33 PM,44.6,30.2,57,29.98,10.0,Calm,Calm,-,N/A,,Clear,0,2014-04-21 01:33:00
8:54 PM,42.8,32.0,66,29.98,10.0,Calm,Calm,-,N/A,,Clear,0,2014-04-21 01:54:00
9:14 PM,41.0,32.0,70,29.98,10.0,Calm,Calm,-,N/A,,Clear,0,2014-04-21 02:14:00
9:33 PM,37.4,32.0,81,29.98,10.0,NE,3.5,-,N/A,,Clear,40,2014-04-21 02:33:00
9:54 PM,37.4,30.2,75,29.97,10.0,Calm,Calm,-,N/A,,Clear,0,2014-04-21 02:54:00
10:14 PM,35.6,30.2,81,29.97,10.0,Calm,Calm,-,N/A,,Clear,0,2014-04-21 03:14:00
10:34 PM,35.6,30.2,81,29.97,10.0,Calm,Calm,-,N/A,,Clear,0,2014-04-21 03:34:00
10:53 PM,33.8,30.2,87,29.96,10.0,NNE,3.5,-,N/A,,Clear,30,2014-04-21 03:53:00
11:14 PM,35.6,30.2,81,29.95,10.0,Calm,Calm,-,N/A,,Clear,0,2014-04-21 04:14:00
11:34 PM,33.8,30.2,87,29.95,10.0,Calm,Calm,-,N/A,,Clear,0,2014-04-21 04:34:00
11:53 PM,33.8,30.2,87,29.95,10.0,NE,4.6,-,N/A,,Clear,40,2014-04-21 04:53:00